This demonstration page uses our WeatherBlox Daily Observations layout. Learn more.

Left ArrowRight Arrow

Hourly Observations for February 2, 2015

Temp ( °F °C ) Dew Point ( °F °C ) Humidity (%) Winds ( mph kmh ) Pressure ( in mb ) Visibility ( mi km ) Precip ( " mm )
12:15 am 00:15 Clear 0 -18 -6 -21 78 78 NNW 6 9 30.53 1034 10 16 0.00 0.00
12:35 am 00:35 Clear 0 -18 -6 -21 78 78 WNW 6 9 30.53 1034 10 16 0.00 0.00
12:55 am 00:55 Clear 0 -18 -6 -21 78 78 W 7 11 30.53 1034 10 16 0.00 0.00
1:15 am 01:15 Clear 0 -18 -4 -20 84 84 W 5 7 30.53 1034 10 16 0.00 0.00
1:35 am 01:35 Clear 0 -18 -6 -21 78 78 W 5 7 30.53 1034 10 16 0.00 0.00
1:55 am 01:55 Clear 0 -18 -6 -21 78 78 Calm 30.53 1034 10 16 0.00 0.00
2:15 am 02:15 Clear 0 -18 -2 -19 92 92 SW 5 7 30.53 1034 10 16 0.00 0.00
2:35 am 02:35 Clear -2 -19 -8 -22 77 77 WSW 9 15 30.56 1035 10 16 0.00 0.00
2:55 am 02:55 Clear 0 -18 -6 -21 78 78 WSW 8 13 30.53 1034 10 16 0.00 0.00
3:15 am 03:15 Clear 0 -18 -4 -20 84 84 WSW 9 15 30.50 1033 10 16 0.00 0.00
3:35 am 03:35 Clear 0 -18 -2 -19 92 92 WSW 8 13 30.50 1033 10 16 0.00 0.00
3:55 am 03:55 Clear 0 -18 -4 -20 84 84 WSW 7 11 30.50 1033 10 16 0.00 0.00
4:15 am 04:15 Clear 0 -18 -4 -20 84 84 WSW 7 11 30.50 1033 10 16 0.00 0.00
4:35 am 04:35 Clear -2 -19 -6 -21 84 84 SW 5 7 30.53 1034 10 16 0.00 0.00
4:55 am 04:55 Clear -2 -19 -6 -21 84 84 SW 3 6 30.50 1033 10 16 0.00 0.00
5:15 am 05:15 Clear -4 -20 -9 -23 77 77 SSW 6 9 30.50 1033 9 14 0.00 0.00
5:35 am 05:35 Clear -6 -21 -9 -23 84 84 S 7 11 30.48 1032 10 16 0.00 0.00
5:55 am 05:55 Clear -6 -21 -8 -22 92 92 SSW 6 9 30.48 1032 10 16 0.00 0.00
6:15 am 06:15 Clear -6 -21 -11 -24 77 77 S 5 7 30.45 1031 10 16 0.00 0.00
6:35 am 06:35 Clear -4 -20 -6 -21 92 92 SSW 6 9 30.45 1031 10 16 0.00 0.00
6:55 am 06:55 Clear 0 -18 -4 -20 84 84 SSW 9 15 30.42 1030 10 16 0.00 0.00
7:15 am 07:15 Clear -2 -19 -8 -22 77 77 S 7 11 30.39 1029 10 16 0.00 0.00
7:35 am 07:35 Clear -2 -19 -6 -21 84 84 S 9 15 30.39 1029 10 16 0.00 0.00
7:55 am 07:55 Sunny -2 -19 -6 -21 84 84 SSW 13 20 30.39 1029 10 16 0.00 0.00
8:15 am 08:15 Sunny 1 -17 -4 -20 78 78 SSW 12 19 30.39 1029 10 16 0.00 0.00
8:35 am 08:35 Sunny 1 -17 -2 -19 85 85 SSW 12 19 30.39 1029 10 16 0.00 0.00
8:55 am 08:55 Sunny 3 -16 0 -18 85 85 S 12 19 30.36 1028 10 16 0.00 0.00
9:15 am 09:15 Sunny 7 -14 0 -18 72 72 SSW 17 28 30.36 1028 10 16 0.00 0.00
9:35 am 09:35 Sunny 9 -13 1 -17 72 72 SSW 17 28 30.33 1027 10 16 0.00 0.00
9:55 am 09:55 Sunny 9 -13 3 -16 78 78 SSW 18 30 30.30 1026 10 16 0.00 0.00
10:15 am 10:15 Sunny 10 -12 5 -15 79 79 S 17 28 30.30 1026 10 16 0.00 0.00
10:35 am 10:35 Sunny 12 -11 5 -15 73 73 S 17 28 30.30 1026 10 16 0.00 0.00
10:55 am 10:55 Sunny 12 -11 7 -14 79 79 SSW 18 30 30.24 1024 10 16 0.00 0.00
11:15 am 11:15 Sunny 14 -10 7 -14 73 73 SSW 18 30 30.24 1024 10 16 0.00 0.00
11:35 am 11:35 Sunny 16 -9 9 -13 73 73 SSW 17 28 30.27 1025 10 16 0.00 0.00
11:55 am 11:55 Sunny 18 -8 9 -13 68 68 SSW 18 30 30.24 1024 10 16 0.00 0.00
12:15 pm 12:15 Sunny 19 -7 10 -12 68 68 SSW 20 31 30.21 1023 10 16 0.00 0.00
12:35 pm 12:35 Sunny 21 -6 12 -11 68 68 SSW 21 33 30.18 1022 10 16 0.00 0.00
12:55 pm 12:55 Sunny 21 -6 12 -11 68 68 SW 17 28 30.18 1022 10 16 0.00 0.00
1:15 pm 13:15 Sunny 21 -6 14 -10 74 74 SW 21 33 30.18 1022 10 16 0.00 0.00
1:35 pm 13:35 Sunny 23 -5 14 -10 68 68 SW 21 33 30.12 1020 10 16 0.00 0.00
1:55 pm 13:55 Sunny 25 -4 16 -9 69 69 SSW 18 30 30.12 1020 10 16 0.00 0.00
2:15 pm 14:15 Sunny 25 -4 18 -8 74 74 SW 17 28 30.12 1020 10 16 0.00 0.00
2:35 pm 14:35 Sunny 27 -3 18 -8 69 69 SSW 20 31 30.09 1019 10 16 0.00 0.00
2:55 pm 14:55 Sunny 27 -3 19 -7 74 74 SW 17 28 30.09 1019 10 16 0.00 0.00
3:15 pm 15:15 Sunny 28 -2 19 -7 69 69 SW 16 26 30.06 1018 10 16 0.00 0.00
3:35 pm 15:35 Sunny 28 -2 21 -6 74 74 SW 15 24 30.06 1018 10 16 0.00 0.00
3:55 pm 15:55 Sunny 30 -1 21 -6 69 69 SW 13 20 30.06 1018 10 16 0.00 0.00
4:15 pm 16:15 Sunny 30 -1 23 -5 75 75 SW 13 20 30.09 1019 10 16 0.00 0.00
4:35 pm 16:35 Sunny 30 -1 25 -4 80 80 WSW 10 17 30.09 1019 10 16 0.00 0.00
4:55 pm 16:55 Sunny 32 0 25 -4 75 75 WSW 8 13 30.12 1020 10 16 0.01 0.25
5:15 pm 17:15 Sunny 32 0 25 -4 75 75 WSW 6 9 30.12 1020 10 16 0.00 0.00
5:35 pm 17:35 Sunny 30 -1 25 -4 80 80 SW 8 13 30.12 1020 10 16 0.00 0.00
5:55 pm 17:55 Clear 28 -2 23 -5 80 80 SW 5 7 30.15 1021 10 16 0.00 0.00
6:15 pm 18:15 Clear 27 -3 23 -5 86 86 SW 5 7 30.15 1021 10 16 0.00 0.00
6:35 pm 18:35 Clear 27 -3 21 -6 80 80 SW 5 7 30.15 1021 10 16 0.00 0.00
6:55 pm 18:55 Clear 25 -4 19 -7 80 80 SSW 5 7 30.15 1021 10 16 0.00 0.00
7:15 pm 19:15 Clear 25 -4 21 -6 86 86 SW 5 7 30.18 1022 10 16 0.00 0.00
7:35 pm 19:35 Clear 25 -4 21 -6 86 86 SSW 3 6 30.18 1022 10 16 0.00 0.00
7:55 pm 19:55 Clear 25 -4 21 -6 86 86 SW 5 7 30.18 1022 10 16 0.00 0.00
8:15 pm 20:15 Clear 23 -5 21 -6 93 93 SW 7 11 30.21 1023 10 16 0.00 0.00
8:35 pm 20:35 Clear 25 -4 23 -5 93 93 SW 5 7 30.18 1022 10 16 0.00 0.00
8:55 pm 20:55 Clear 25 -4 21 -6 86 86 WSW 6 9 30.18 1022 10 16 0.00 0.00
9:15 pm 21:15 Clear 19 -7 12 -11 73 73 Calm 30.21 1023 10 16 0.00 0.00
9:35 pm 21:35 Clear 21 -6 21 -6 100 100 N 3 6 30.21 1023 7 11 0.00 0.00
9:55 pm 21:55 Clear 19 -7 16 -9 86 86 NW 3 6 30.21 1023 3 5 0.00 0.00
10:15 pm 22:15 Clear 18 -8 16 -9 93 93 W 7 11 30.24 1024 5 8 0.00 0.00
10:35 pm 22:35 Clear 21 -6 18 -8 86 86 WSW 3 6 30.21 1023 8 13 0.00 0.00
10:55 pm 22:55 Clear 19 -7 18 -8 93 93 Calm 30.21 1023 7 11 0.00 0.00
11:15 pm 23:15 Clear 19 -7 18 -8 93 93 WSW 6 9 30.24 1024 8 13 0.00 0.00
11:35 pm 23:35 Clear 21 -6 19 -7 93 93 Calm 30.21 1023 7 11 0.00 0.00
11:55 pm 23:55 Clear 16 -9 12 -11 86 86 Calm 30.24 1024 6 10 0.00 0.00

Powered by AerisWeather